Vorticity
12 14 18 19 13 8 10 13 21 19 17 14 20 22 18 16 23 10 9 4 4 2 1 3 5 4 5 5 14 9 -39 34 -3 -11 9 20 17 6
12 11 11 10 10 14 18 16 15 14 14 11 14 21 20 21 16 23 9 7 7 5 3 5 1 1 2 6 6 19 -10 3 6 32 17 13 10 -1
16 15 14 11 10 10 10 10 10 11 14 9 11 11 17 21 20 20 22 12 6 7 7 4 7 3 2 1 5 6 11 -18 -19 -3 12 14 -3 20
11 10 8 7 9 10 12 11 11 11 11 4 5 6 8 13 18 19 21 19 19 7 8 9 4 3 3 3 -0 5 6 23 3 -17 -7 13 9 14
12 12 10 9 10 10 12 12 11 11 10 10 7 7 6 2 4 16 17 20 18 21 12 7 8 7 4 3 3 1 6 4 7 13 2 7 -1 7
10 13 16 18 19 19 20 21 20 20 21 21 16 12 10 5 9 8 5 14 16 23 18 17 11 10 8 3 5 4 0 5 1 1 6 -29 9 -3
23 22 23 28 33 36 36 36 37 39 39 33 26 23 23 22 12 6 10 10 3 11 18 19 15 15 11 8 8 5 0 3 4 5 3 20 -6 16
33 36 28 28 28 27 23 21 27 26 30 38 47 49 45 35 26 23 17 10 11 11 5 11 17 18 16 10 6 5 6 3 2 7 2 11 -34 18
30 16 16 9 6 11 12 6 4 8 12 10 7 12 20 35 42 44 29 22 17 10 15 8 5 6 11 19 16 10 7 7 7 4 4 4 12 -10
9 5 4 7 6 9 9 8 8 10 9 8 7 5 6 9 8 28 53 40 28 20 21 18 13 7 6 8 5 12 15 11 11 10 6 2 2 3
6 11 15 17 15 15 12 5 1 8 10 8 10 11 16 8 14 9 7 22 49 57 39 30 20 21 20 14 11 11 7 10 10 12 14 3 5 3
16 13 12 12 16 24 33 42 38 28 20 15 21 19 22 16 7 13 4 4 3 8 18 37 51 53 45 28 26 20 14 9 10 5 8 15 4 7
12 13 20 21 23 12 9 11 16 37 39 30 17 15 13 10 19 19 11 6 3 2 11 10 0 3 20 41 51 48 24 18 15 8 8 6 11 12
17 14 14 17 22 20 14 7 9 8 9 15 21 25 22 21 22 17 14 25 17 10 4 9 14 10 2 -3 -7 24 77 46 19 20 15 8 7 7
12 8 13 10 14 26 34 13 16 6 21 22 26 20 17 12 7 8 15 21 23 27 15 8 4 9 8 8 9 -2 15 45 68 34 14 23 11 12
13 13 14 16 15 32 31 23 13 7 9 5 11 11 16 13 9 8 11 15 15 21 31 21 6 5 1 5 5 1 5 37 41 65 76 32 24 14
16 22 11 9 10 14 20 18 13 16 20 29 18 16 9 8 1 1 3 11 7 16 15 31 25 6 8 5 9 3 17 28 24 25 30 44 55 31
15 14 11 13 15 8 17 17 17 23 16 6 2 36 51 56 72 53 44 32 11 3 27 19 28 26 19 13 10 9 15 22 35 31 11 25 38 37
5 15 8 19 11 7 10 12 9 15 13 16 11 42 12 20 14 27 32 23 42 30 18 23 23 18 13 6 9 6 23 33 37 11 -0 -3 -6 26
5 11 15 16 7 6 -0 3 2 6 18 16 12 30 23 21 17 19 20 15 18 20 18 18 17 12 5 12 8 5 0 27 28 13 1 -3 23 24
6 7 10 17 19 9 1 1 11 11 14 18 20 11 28 23 27 15 19 16 21 23 21 21 20 17 15 13 16 -8 0 26 15 34 17 13 29 2
8 7 6 7 11 16 18 14 8 9 6 10 22 18 14 24 25 20 25 11 23 18 16 19 17 21 18 22 -0 9 12 20 24 28 21 -18 -2 36
7 8 8 7 4 3 4 3 7 1 3 5 9 19 11 14 24 25 20 28 14 24 25 19 19 21 22 18 17 16 18 -5 14 37 19 16 13 -3
Height
5504 5501 5498 5496 5494 5493 5494 5493 5492 5495 5501 5502 5505 5508 5512 5518 5525 5531 5542 5553 5560 5567 5574 5581 5589 5598 5606 5613 5622 5631 5638 5641 5648 5653 5659 5667 5675 5682
5485 5482 5481 5478 5475 5473 5472 5473 5474 5474 5479 5482 5486 5488 5492 5498 5503 5510 5520 5528 5539 5548 5555 5563 5572 5580 5588 5596 5604 5613 5617 5623 5631 5637 5646 5652 5659 5666
5468 5463 5462 5458 5456 5453 5452 5453 5455 5456 5460 5463 5467 5471 5474 5479 5484 5490 5498 5507 5516 5525 5533 5542 5551 5561 5570 5578 5586 5593 5601 5606 5612 5620 5629 5637 5643 5651
5449 5444 5442 5437 5435 5432 5430 5430 5432 5435 5440 5444 5446 5451 5456 5459 5464 5469 5476 5484 5493 5501 5511 5521 5530 5540 5550 5559 5566 5575 5582 5588 5593 5603 5611 5620 5627 5635
5429 5423 5419 5414 5412 5408 5406 5405 5406 5409 5414 5418 5427 5429 5435 5440 5445 5450 5456 5464 5472 5480 5488 5497 5507 5518 5528 5538 5546 5556 5564 5573 5581 5587 5595 5602 5609 5620
5408 5401 5395 5389 5385 5382 5380 5379 5378 5380 5387 5391 5398 5404 5408 5414 5419 5428 5435 5441 5449 5456 5466 5474 5483 5494 5506 5517 5528 5536 5545 5553 5562 5571 5579 5587 5594 5601
5386 5378 5371 5366 5362 5359 5357 5357 5355 5356 5360 5364 5371 5372 5381 5386 5391 5400 5409 5418 5425 5432 5440 5450 5465 5475 5483 5494 5505 5514 5522 5532 5541 5550 5560 5568 5578 5586
5364 5357 5353 5350 5347 5345 5343 5342 5342 5342 5344 5344 5345 5348 5353 5357 5363 5372 5379 5388 5403 5409 5418 5431 5439 5452 5462 5470 5480 5490 5500 5510 5520 5530 5540 5549 5559 5568
5349 5346 5344 5342 5339 5337 5335 5334 5334 5335 5335 5335 5334 5336 5337 5338 5340 5347 5353 5363 5376 5385 5393 5407 5416 5430 5439 5446 5456 5465 5476 5487 5498 5509 5519 5529 5538 5550
5340 5338 5335 5333 5329 5326 5325 5324 5325 5325 5325 5324 5325 5326 5327 5328 5329 5331 5335 5342 5350 5360 5367 5384 5394 5407 5413 5423 5432 5440 5452 5463 5476 5488 5499 5509 5518 5528
5332 5328 5324 5321 5317 5314 5313 5312 5312 5312 5312 5312 5313 5314 5315 5317 5319 5322 5326 5329 5336 5342 5347 5357 5369 5378 5387 5398 5406 5416 5427 5438 5450 5463 5475 5486 5498 5507
5324 5319 5314 5309 5305 5302 5299 5297 5298 5297 5296 5297 5299 5300 5301 5305 5308 5312 5315 5321 5325 5330 5335 5342 5348 5354 5362 5373 5379 5387 5399 5411 5425 5438 5451 5465 5478 5485
5315 5310 5305 5300 5296 5294 5292 5290 5288 5285 5283 5285 5286 5288 5289 5292 5295 5298 5303 5307 5312 5318 5322 5329 5335 5340 5345 5353 5355 5363 5372 5381 5396 5410 5426 5441 5452 5463
5308 5303 5299 5294 5290 5286 5283 5282 5281 5279 5278 5277 5277 5278 5279 5280 5282 5285 5289 5293 5298 5304 5309 5315 5322 5327 5332 5338 5344 5348 5350 5358 5368 5382 5399 5414 5427 5441
5302 5298 5294 5289 5284 5278 5274 5275 5275 5274 5272 5271 5271 5271 5271 5272 5272 5274 5276 5279 5284 5289 5295 5302 5309 5313 5319 5327 5331 5335 5335 5337 5344 5357 5373 5389 5404 5416
5299 5294 5290 5285 5280 5274 5270 5270 5270 5269 5267 5266 5265 5264 5264 5264 5264 5264 5265 5267 5271 5275 5279 5286 5293 5300 5307 5313 5318 5323 5324 5325 5329 5337 5349 5364 5378 5392
5297 5292 5288 5284 5279 5275 5271 5269 5267 5265 5263 5261 5259 5256 5253 5250 5249 5249 5251 5254 5258 5261 5266 5271 5278 5286 5294 5299 5306 5310 5312 5316 5320 5327 5335 5344 5356 5371
5295 5290 5287 5284 5281 5277 5273 5270 5267 5263 5260 5257 5252 5244 5237 5233 5232 5233 5235 5238 5243 5249 5254 5259 5265 5273 5281 5289 5294 5298 5301 5307 5311 5319 5326 5334 5342 5355
5293 5289 5286 5285 5282 5278 5275 5272 5268 5264 5259 5253 5246 5237 5232 5228 5227 5225 5226 5228 5232 5239 5245 5249 5256 5264 5271 5278 5282 5286 5291 5296 5302 5309 5317 5325 5332 5343
5292 5289 5286 5284 5283 5279 5276 5273 5269 5264 5258 5252 5246 5237 5232 5228 5227 5226 5227 5228 5231 5234 5239 5245 5251 5257 5264 5268 5273 5278 5283 5289 5295 5301 5308 5317 5325 5332
5291 5289 5286 5284 5282 5280 5278 5275 5271 5266 5260 5253 5247 5242 5235 5230 5228 5228 5228 5228 5229 5232 5235 5240 5245 5250 5256 5261 5267 5272 5278 5283 5288 5295 5302 5309 5317 5326
5290 5289 5286 5285 5283 5280 5278 5276 5272 5268 5263 5257 5251 5245 5240 5235 5231 5229 5228 5229 5229 5230 5233 5237 5241 5246 5251 5257 5261 5267 5273 5277 5282 5288 5296 5304 5313 5321
5290 5289 5287 5285 5283 5281 5279 5276 5273 5270 5266 5262 5256 5251 5246 5241 5236 5232 5230 5229 5230 5230 5232 5235 5238 5243 5247 5252 5257 5262 5268 5273 5277 5282 5291 5299 5306 5314